contact:dominique.lefevre@mio.osupytheas.fr, maurice.libes@osupytheas.fr, didier.mallarino@osupytheas.fr
Project:EMSO http://www.emso-fr.org/EMSO-France
Depth: 2436.0 m
Title:EMSO Ligure Ouest : Data MII capteur MICROCAT
DateTime_Computer,Latitude,Longitude,Temperature,Conductivity,Pressure,DateTime_Instrument
DateTime_Computer,Latitude,Longitude,degC,S m-1,dbar,DateTime_Instrument
2022-11-30T00:00:50Z,42.805,6.029,13.3026,4.60074,2470.624,2022-11-30T02:02:50Z
2022-11-30T00:03:53Z,42.805,6.029,13.3029,4.60081,2470.567,2022-11-30T02:05:53Z
2022-11-30T00:06:56Z,42.805,6.029,13.3043,4.60081,2470.6,2022-11-30T02:08:56Z
2022-11-30T00:09:59Z,42.805,6.029,13.3036,4.60102,2470.591,2022-11-30T02:11:59Z
2022-11-30T00:13:03Z,42.805,6.029,13.3030,4.60107,2470.591,2022-11-30T02:15:02Z
2022-11-30T00:16:06Z,42.805,6.029,13.3041,4.60115,2470.591,2022-11-30T02:18:05Z
2022-11-30T00:19:09Z,42.805,6.029,13.3037,4.60087,2470.591,2022-11-30T02:21:08Z
2022-11-30T00:22:12Z,42.805,6.029,13.3036,4.60114,2470.591,2022-11-30T02:24:11Z
2022-11-30T00:25:15Z,42.805,6.029,13.3035,4.60114,2470.591,2022-11-30T02:27:14Z
2022-11-30T00:28:18Z,42.805,6.029,13.3039,4.60095,2470.6,2022-11-30T02:30:17Z
2022-11-30T00:31:21Z,42.805,6.029,13.3034,4.60137,2470.577,2022-11-30T02:33:20Z
2022-11-30T00:34:24Z,42.805,6.029,13.3033,4.60095,2470.6,2022-11-30T02:36:24Z
2022-11-30T00:37:27Z,42.805,6.029,13.3024,4.60092,2470.6,2022-11-30T02:39:27Z
2022-11-30T00:40:30Z,42.805,6.029,13.3036,4.60125,2470.637,2022-11-30T02:42:30Z
2022-11-30T00:43:33Z,42.805,6.029,13.3029,4.60105,2470.567,2022-11-30T02:45:33Z
2022-11-30T00:46:36Z,42.805,6.029,13.3030,4.60127,2470.577,2022-11-30T02:48:36Z
2022-11-30T00:49:39Z,42.805,6.029,13.3029,4.60131,2470.6,2022-11-30T02:51:39Z
2022-11-30T00:52:43Z,42.805,6.029,13.3035,4.60100,2470.614,2022-11-30T02:54:42Z
2022-11-30T00:55:46Z,42.805,6.029,13.3039,4.60118,2470.577,2022-11-30T02:57:45Z
2022-11-30T00:58:49Z,42.805,6.029,13.3029,4.60101,2470.577,2022-11-30T03:00:48Z
2022-11-30T01:01:52Z,42.805,6.029,13.3032,4.60110,2470.614,2022-11-30T03:03:51Z
2022-11-30T01:04:55Z,42.805,6.029,13.3029,4.60121,2470.577,2022-11-30T03:06:54Z
2022-11-30T01:07:58Z,42.805,6.029,13.3032,4.60123,2470.577,2022-11-30T03:09:57Z
2022-11-30T01:11:01Z,42.805,6.029,13.3028,4.60120,2470.577,2022-11-30T03:13:00Z
2022-11-30T01:14:04Z,42.805,6.029,13.3030,4.60101,2470.567,2022-11-30T03:16:03Z
2022-11-30T01:17:07Z,42.805,6.029,13.3021,4.60093,2470.577,2022-11-30T03:19:07Z
2022-11-30T01:20:10Z,42.805,6.029,13.3040,4.60104,2470.577,2022-11-30T03:22:10Z
2022-11-30T01:23:13Z,42.805,6.029,13.3026,4.60092,2470.553,2022-11-30T03:25:13Z
2022-11-30T01:26:16Z,42.805,6.029,13.3034,4.60119,2470.614,2022-11-30T03:28:16Z
2022-11-30T01:29:19Z,42.805,6.029,13.3029,4.60092,2470.6,2022-11-30T03:31:19Z
2022-11-30T01:32:23Z,42.805,6.029,13.3028,4.60097,2470.553,2022-11-30T03:34:22Z
2022-11-30T01:35:26Z,42.805,6.029,13.3024,4.60108,2470.591,2022-11-30T03:37:25Z
2022-11-30T01:38:29Z,42.805,6.029,13.3028,4.60097,2470.553,2022-11-30T03:40:28Z
2022-11-30T01:41:32Z,42.805,6.029,13.3030,4.60107,2470.553,2022-11-30T03:43:31Z
2022-11-30T01:44:35Z,42.805,6.029,13.3028,4.60101,2470.577,2022-11-30T03:46:34Z
2022-11-30T01:47:38Z,42.805,6.029,13.3033,4.60094,2470.567,2022-11-30T03:49:37Z
2022-11-30T01:50:41Z,42.805,6.029,13.3030,4.60104,2470.6,2022-11-30T03:52:40Z
2022-11-30T01:53:44Z,42.805,6.029,13.3026,4.60104,2470.553,2022-11-30T03:55:44Z
2022-11-30T01:56:47Z,42.805,6.029,13.3040,4.60117,2470.577,2022-11-30T03:58:47Z
2022-11-30T01:59:50Z,42.805,6.029,13.3031,4.60123,2470.53,2022-11-30T04:01:50Z
2022-11-30T02:02:53Z,42.805,6.029,13.3031,4.60111,2470.544,2022-11-30T04:04:53Z
2022-11-30T02:05:56Z,42.805,6.029,13.3027,4.60125,2470.577,2022-11-30T04:07:56Z
2022-11-30T02:08:59Z,42.805,6.029,13.3029,4.60111,2470.577,2022-11-30T04:10:59Z
2022-11-30T02:12:02Z,42.805,6.029,13.3034,4.60122,2470.53,2022-11-30T04:14:02Z
2022-11-30T02:15:06Z,42.805,6.029,13.3041,4.60109,2470.577,2022-11-30T04:17:05Z
2022-11-30T02:18:09Z,42.805,6.029,13.3036,4.60126,2470.577,2022-11-30T04:20:08Z
2022-11-30T02:21:12Z,42.805,6.029,13.3029,4.60114,2470.553,2022-11-30T04:23:11Z
2022-11-30T02:24:15Z,42.805,6.029,13.3029,4.60098,2470.53,2022-11-30T04:26:14Z
2022-11-30T02:27:18Z,42.805,6.029,13.3034,4.60108,2470.553,2022-11-30T04:29:17Z
2022-11-30T02:30:21Z,42.805,6.029,13.3028,4.60110,2470.567,2022-11-30T04:32:20Z
2022-11-30T02:33:24Z,42.805,6.029,13.3027,4.60105,2470.614,2022-11-30T04:35:24Z
2022-11-30T02:36:27Z,42.805,6.029,13.3031,4.60102,2470.567,2022-11-30T04:38:27Z
2022-11-30T02:39:30Z,42.805,6.029,13.3039,4.60106,2470.577,2022-11-30T04:41:30Z
2022-11-30T02:42:33Z,42.805,6.029,13.3024,4.60116,2470.53,2022-11-30T04:44:33Z
2022-11-30T02:45:36Z,42.805,6.029,13.3024,4.60101,2470.553,2022-11-30T04:47:36Z
2022-11-30T02:48:39Z,42.805,6.029,13.3032,4.60099,2470.577,2022-11-30T04:50:39Z
2022-11-30T02:51:42Z,42.805,6.029,13.3024,4.60104,2470.577,2022-11-30T04:53:42Z
2022-11-30T02:54:46Z,42.805,6.029,13.3026,4.60093,2470.6,2022-11-30T04:56:45Z
2022-11-30T02:57:49Z,42.805,6.029,13.3029,4.60126,2470.53,2022-11-30T04:59:48Z
2022-11-30T03:00:52Z,42.805,6.029,13.3021,4.60111,2470.577,2022-11-30T05:02:51Z
2022-11-30T03:03:55Z,42.805,6.029,13.3020,4.60094,2470.544,2022-11-30T05:05:54Z
2022-11-30T03:06:58Z,42.805,6.029,13.3035,4.60101,2470.553,2022-11-30T05:08:57Z
2022-11-30T03:10:01Z,42.805,6.029,13.3031,4.60122,2470.577,2022-11-30T05:12:00Z
2022-11-30T03:13:04Z,42.805,6.029,13.3032,4.60107,2470.577,2022-11-30T05:15:04Z
2022-11-30T03:16:07Z,42.805,6.029,13.3031,4.60132,2470.591,2022-11-30T05:18:07Z
2022-11-30T03:19:10Z,42.805,6.029,13.3036,4.60144,2470.544,2022-11-30T05:21:10Z
2022-11-30T03:22:13Z,42.805,6.029,13.3039,4.60127,2470.53,2022-11-30T05:24:13Z
2022-11-30T03:25:16Z,42.805,6.029,13.3024,4.60114,2470.553,2022-11-30T05:27:16Z
2022-11-30T03:28:19Z,42.805,6.029,13.3048,4.60109,2470.53,2022-11-30T05:30:19Z
2022-11-30T03:31:23Z,42.805,6.029,13.3033,4.60114,2470.567,2022-11-30T05:33:22Z
2022-11-30T03:34:26Z,42.805,6.029,13.3039,4.60116,2470.591,2022-11-30T05:36:25Z
2022-11-30T03:37:29Z,42.805,6.029,13.3029,4.60103,2470.591,2022-11-30T05:39:28Z
2022-11-30T03:40:32Z,42.805,6.029,13.3032,4.60116,2470.577,2022-11-30T05:42:31Z
2022-11-30T03:43:35Z,42.805,6.029,13.3028,4.60102,2470.567,2022-11-30T05:45:34Z
2022-11-30T03:46:38Z,42.805,6.029,13.3024,4.60099,2470.591,2022-11-30T05:48:37Z
2022-11-30T03:49:41Z,42.805,6.029,13.3026,4.60120,2470.544,2022-11-30T05:51:40Z
2022-11-30T03:52:44Z,42.805,6.029,13.3029,4.60115,2470.567,2022-11-30T05:54:44Z
2022-11-30T03:55:47Z,42.805,6.029,13.3032,4.60101,2470.577,2022-11-30T05:57:47Z
2022-11-30T03:58:50Z,42.805,6.029,13.3043,4.60122,2470.553,2022-11-30T06:00:50Z
2022-11-30T04:01:53Z,42.805,6.029,13.3027,4.60135,2470.553,2022-11-30T06:03:53Z
2022-11-30T04:04:56Z,42.805,6.029,13.3040,4.60113,2470.553,2022-11-30T06:06:56Z
2022-11-30T04:07:59Z,42.805,6.029,13.3033,4.60119,2470.591,2022-11-30T06:09:59Z
2022-11-30T04:11:02Z,42.805,6.029,13.3031,4.60121,2470.53,2022-11-30T06:13:02Z
2022-11-30T04:14:06Z,42.805,6.029,13.3042,4.60137,2470.567,2022-11-30T06:16:05Z
2022-11-30T04:17:09Z,42.805,6.029,13.3036,4.60125,2470.553,2022-11-30T06:19:08Z
2022-11-30T04:20:12Z,42.805,6.029,13.3026,4.60117,2470.553,2022-11-30T06:22:11Z
2022-11-30T04:23:15Z,42.805,6.029,13.3047,4.60109,2470.567,2022-11-30T06:25:14Z
2022-11-30T04:26:18Z,42.805,6.029,13.3024,4.60129,2470.567,2022-11-30T06:28:17Z
2022-11-30T04:29:21Z,42.805,6.029,13.3033,4.60127,2470.577,2022-11-30T06:31:20Z
2022-11-30T04:32:24Z,42.805,6.029,13.3043,4.60130,2470.553,2022-11-30T06:34:23Z
2022-11-30T04:35:27Z,42.805,6.029,13.3036,4.60132,2470.53,2022-11-30T06:37:27Z
2022-11-30T04:38:30Z,42.805,6.029,13.3021,4.60122,2470.567,2022-11-30T06:40:30Z
2022-11-30T04:41:33Z,42.805,6.029,13.3035,4.60126,2470.544,2022-11-30T06:43:33Z
2022-11-30T04:44:36Z,42.805,6.029,13.3029,4.60142,2470.553,2022-11-30T06:46:36Z
2022-11-30T04:47:39Z,42.805,6.029,13.3021,4.60109,2470.53,2022-11-30T06:49:39Z
2022-11-30T04:50:43Z,42.805,6.029,13.3019,4.60113,2470.567,2022-11-30T06:52:42Z
2022-11-30T04:53:46Z,42.805,6.029,13.3027,4.60103,2470.553,2022-11-30T06:55:45Z
2022-11-30T04:56:49Z,42.805,6.029,13.3044,4.60121,2470.567,2022-11-30T06:58:48Z
2022-11-30T04:59:52Z,42.805,6.029,13.3019,4.60101,2470.53,2022-11-30T07:01:51Z
2022-11-30T05:02:55Z,42.805,6.029,13.3034,4.60136,2470.553,2022-11-30T07:04:54Z
2022-11-30T05:05:58Z,42.805,6.029,13.3023,4.60134,2470.553,2022-11-30T07:07:57Z
2022-11-30T05:09:01Z,42.805,6.029,13.3038,4.60150,2470.53,2022-11-30T07:11:00Z
2022-11-30T05:12:04Z,42.805,6.029,13.3024,4.60122,2470.544,2022-11-30T07:14:04Z
2022-11-30T05:15:07Z,42.805,6.029,13.3034,4.60119,2470.553,2022-11-30T07:17:07Z
2022-11-30T05:18:10Z,42.805,6.029,13.3041,4.60121,2470.52,2022-11-30T07:20:10Z
2022-11-30T05:21:13Z,42.805,6.029,13.3032,4.60112,2470.52,2022-11-30T07:23:13Z
2022-11-30T05:24:16Z,42.805,6.029,13.3021,4.60125,2470.53,2022-11-30T07:26:16Z
2022-11-30T05:27:19Z,42.805,6.029,13.3034,4.60117,2470.507,2022-11-30T07:29:19Z
2022-11-30T05:30:22Z,42.805,6.029,13.3036,4.60109,2470.53,2022-11-30T07:32:22Z
2022-11-30T05:33:26Z,42.805,6.029,13.3020,4.60103,2470.53,2022-11-30T07:35:25Z
2022-11-30T05:36:29Z,42.805,6.029,13.3036,4.60116,2470.553,2022-11-30T07:38:28Z
2022-11-30T05:39:32Z,42.805,6.029,13.3042,4.60137,2470.544,2022-11-30T07:41:31Z
2022-11-30T05:42:35Z,42.805,6.029,13.3046,4.60133,2470.53,2022-11-30T07:44:34Z
2022-11-30T05:45:38Z,42.805,6.029,13.3034,4.60114,2470.544,2022-11-30T07:47:37Z
2022-11-30T05:48:41Z,42.805,6.029,13.3036,4.60124,2470.567,2022-11-30T07:50:40Z
2022-11-30T05:51:44Z,42.805,6.029,13.3034,4.60119,2470.553,2022-11-30T07:53:43Z
2022-11-30T05:54:47Z,42.805,6.029,13.3033,4.60140,2470.553,2022-11-30T07:56:47Z
2022-11-30T05:57:50Z,42.805,6.029,13.3029,4.60115,2470.553,2022-11-30T07:59:50Z
2022-11-30T06:00:53Z,42.805,6.029,13.3027,4.60139,2470.544,2022-11-30T08:02:53Z
2022-11-30T06:03:56Z,42.805,6.029,13.3043,4.60151,2470.544,2022-11-30T08:05:56Z
2022-11-30T06:06:59Z,42.805,6.029,13.3024,4.60118,2470.544,2022-11-30T08:08:59Z
2022-11-30T06:10:02Z,42.805,6.029,13.3036,4.60165,2470.544,2022-11-30T08:12:02Z
2022-11-30T06:13:05Z,42.805,6.029,13.3026,4.60134,2470.553,2022-11-30T08:15:05Z
2022-11-30T06:16:09Z,42.805,6.029,13.3042,4.60128,2470.52,2022-11-30T08:18:08Z
2022-11-30T06:19:12Z,42.805,6.029,13.3044,4.60121,2470.507,2022-11-30T08:21:11Z
2022-11-30T06:22:15Z,42.805,6.029,13.3036,4.60102,2470.53,2022-11-30T08:24:14Z
2022-11-30T06:25:18Z,42.805,6.029,13.3034,4.60112,2470.553,2022-11-30T08:27:17Z
2022-11-30T06:28:21Z,42.805,6.029,13.3050,4.60119,2470.507,2022-11-30T08:30:20Z
2022-11-30T06:31:24Z,42.805,6.029,13.3035,4.60128,2470.553,2022-11-30T08:33:23Z
2022-11-30T06:34:27Z,42.805,6.029,13.3043,4.60142,2470.567,2022-11-30T08:36:26Z
2022-11-30T06:37:30Z,42.805,6.029,13.3045,4.60111,2470.507,2022-11-30T08:39:30Z
2022-11-30T06:40:33Z,42.805,6.029,13.3032,4.60124,2470.544,2022-11-30T08:42:33Z
2022-11-30T06:43:36Z,42.805,6.029,13.3048,4.60133,2470.553,2022-11-30T08:45:36Z
2022-11-30T06:46:39Z,42.805,6.029,13.3039,4.60127,2470.553,2022-11-30T08:48:39Z
2022-11-30T06:49:42Z,42.805,6.029,13.3038,4.60105,2470.553,2022-11-30T08:51:42Z
2022-11-30T06:52:45Z,42.805,6.029,13.3042,4.60108,2470.567,2022-11-30T08:54:45Z
2022-11-30T06:55:49Z,42.805,6.029,13.3036,4.60090,2470.53,2022-11-30T08:57:48Z
2022-11-30T06:58:52Z,42.805,6.029,13.3050,4.60094,2470.544,2022-11-30T09:00:51Z
2022-11-30T07:01:55Z,42.805,6.029,13.3028,4.60095,2470.553,2022-11-30T09:03:54Z
2022-11-30T07:04:58Z,42.805,6.029,13.3036,4.60126,2470.544,2022-11-30T09:06:57Z
2022-11-30T07:08:01Z,42.805,6.029,13.3039,4.60133,2470.53,2022-11-30T09:10:00Z
2022-11-30T07:11:04Z,42.805,6.029,13.3037,4.60121,2470.53,2022-11-30T09:13:03Z
2022-11-30T07:14:07Z,42.805,6.029,13.3060,4.60100,2470.567,2022-11-30T09:16:06Z
2022-11-30T07:17:10Z,42.805,6.029,13.3066,4.60162,2470.553,2022-11-30T09:19:10Z
2022-11-30T07:20:13Z,42.805,6.029,13.3087,4.60116,2470.553,2022-11-30T09:22:13Z
2022-11-30T07:23:16Z,42.805,6.029,13.3074,4.60135,2470.553,2022-11-30T09:25:16Z
2022-11-30T07:26:19Z,42.805,6.029,13.3063,4.60119,2470.553,2022-11-30T09:28:19Z
2022-11-30T07:29:22Z,42.805,6.029,13.3083,4.60084,2470.53,2022-11-30T09:31:22Z
2022-11-30T07:32:25Z,42.805,6.029,13.3054,4.60099,2470.53,2022-11-30T09:34:25Z
2022-11-30T07:35:29Z,42.805,6.029,13.3059,4.60095,2470.544,2022-11-30T09:37:28Z
2022-11-30T07:38:32Z,42.805,6.029,13.3086,4.60091,2470.591,2022-11-30T09:40:31Z
2022-11-30T07:41:35Z,42.805,6.029,13.3048,4.60097,2470.553,2022-11-30T09:43:34Z
2022-11-30T07:44:38Z,42.805,6.029,13.3014,4.60074,2470.591,2022-11-30T09:46:37Z
2022-11-30T07:47:41Z,42.805,6.029,13.3021,4.60067,2470.591,2022-11-30T09:49:40Z
2022-11-30T07:50:44Z,42.805,6.029,13.3011,4.60072,2470.553,2022-11-30T09:52:43Z
2022-11-30T07:53:47Z,42.805,6.029,13.3015,4.60072,2470.577,2022-11-30T09:55:46Z
2022-11-30T07:56:50Z,42.805,6.029,13.3011,4.60066,2470.53,2022-11-30T09:58:50Z
2022-11-30T07:59:53Z,42.805,6.029,13.3014,4.60062,2470.553,2022-11-30T10:01:53Z
2022-11-30T08:02:56Z,42.805,6.029,13.3009,4.60064,2470.567,2022-11-30T10:04:56Z
2022-11-30T08:05:59Z,42.805,6.029,13.3008,4.60064,2470.553,2022-11-30T10:07:59Z
2022-11-30T08:09:02Z,42.805,6.029,13.3010,4.60063,2470.553,2022-11-30T10:11:02Z
2022-11-30T08:12:05Z,42.805,6.029,13.3010,4.60061,2470.567,2022-11-30T10:14:05Z
2022-11-30T08:15:08Z,42.805,6.029,13.3011,4.60067,2470.577,2022-11-30T10:17:08Z
2022-11-30T08:18:12Z,42.805,6.029,13.3007,4.60060,2470.591,2022-11-30T10:20:11Z
2022-11-30T08:21:15Z,42.805,6.029,13.3013,4.60062,2470.577,2022-11-30T10:23:14Z
2022-11-30T08:24:18Z,42.805,6.029,13.3011,4.60069,2470.567,2022-11-30T10:26:17Z
2022-11-30T08:27:21Z,42.805,6.029,13.3009,4.60062,2470.6,2022-11-30T10:29:20Z
2022-11-30T08:30:24Z,42.805,6.029,13.3009,4.60058,2470.614,2022-11-30T10:32:23Z
2022-11-30T08:33:27Z,42.805,6.029,13.3011,4.60060,2470.614,2022-11-30T10:35:26Z
2022-11-30T08:36:30Z,42.805,6.029,13.3011,4.60061,2470.6,2022-11-30T10:38:29Z
2022-11-30T08:39:33Z,42.805,6.029,13.3009,4.60060,2470.614,2022-11-30T10:41:33Z
2022-11-30T08:42:36Z,42.805,6.029,13.3011,4.60061,2470.6,2022-11-30T10:44:36Z
2022-11-30T08:45:39Z,42.805,6.029,13.3013,4.60062,2470.591,2022-11-30T10:47:39Z
2022-11-30T08:48:42Z,42.805,6.029,13.3014,4.60060,2470.577,2022-11-30T10:50:42Z
2022-11-30T08:51:45Z,42.805,6.029,13.3012,4.60059,2470.624,2022-11-30T10:53:45Z
2022-11-30T08:54:49Z,42.805,6.029,13.3009,4.60062,2470.577,2022-11-30T10:56:48Z
2022-11-30T08:57:52Z,42.805,6.029,13.3013,4.60062,2470.6,2022-11-30T10:59:51Z
2022-11-30T09:00:55Z,42.805,6.029,13.3011,4.60059,2470.624,2022-11-30T11:02:54Z
2022-11-30T09:03:58Z,42.805,6.029,13.3011,4.60060,2470.637,2022-11-30T11:05:57Z
2022-11-30T09:07:01Z,42.805,6.029,13.3013,4.60063,2470.637,2022-11-30T11:09:00Z
2022-11-30T09:10:04Z,42.805,6.029,13.3006,4.60057,2470.614,2022-11-30T11:12:03Z
2022-11-30T09:13:07Z,42.805,6.029,13.3010,4.60059,2470.646,2022-11-30T11:15:06Z
2022-11-30T09:16:10Z,42.805,6.029,13.3009,4.60061,2470.646,2022-11-30T11:18:10Z
2022-11-30T09:19:13Z,42.805,6.029,13.3012,4.60058,2470.624,2022-11-30T11:21:13Z
2022-11-30T09:22:16Z,42.805,6.029,13.3012,4.60064,2470.646,2022-11-30T11:24:16Z
2022-11-30T09:25:19Z,42.805,6.029,13.3012,4.60059,2470.646,2022-11-30T11:27:19Z
2022-11-30T09:28:22Z,42.805,6.029,13.3013,4.60062,2470.624,2022-11-30T11:30:22Z
2022-11-30T09:31:25Z,42.805,6.029,13.3011,4.60062,2470.637,2022-11-30T11:33:25Z
2022-11-30T09:34:29Z,42.805,6.029,13.3007,4.60062,2470.624,2022-11-30T11:36:28Z
2022-11-30T09:37:32Z,42.805,6.029,13.3010,4.60062,2470.661,2022-11-30T11:39:31Z
2022-11-30T09:40:35Z,42.805,6.029,13.3014,4.60059,2470.624,2022-11-30T11:42:34Z
2022-11-30T09:43:38Z,42.805,6.029,13.3012,4.60059,2470.614,2022-11-30T11:45:37Z
2022-11-30T09:46:41Z,42.805,6.029,13.3014,4.60062,2470.684,2022-11-30T11:48:40Z
2022-11-30T09:49:44Z,42.805,6.029,13.3011,4.60060,2470.661,2022-11-30T11:51:43Z
2022-11-30T09:52:47Z,42.805,6.029,13.3009,4.60063,2470.67,2022-11-30T11:54:47Z
2022-11-30T09:55:50Z,42.805,6.029,13.3011,4.60059,2470.67,2022-11-30T11:57:50Z
2022-11-30T09:58:53Z,42.805,6.029,13.3010,4.60061,2470.693,2022-11-30T12:00:53Z
2022-11-30T10:01:56Z,42.805,6.029,13.3014,4.60065,2470.67,2022-11-30T12:03:56Z
2022-11-30T10:04:59Z,42.805,6.029,13.3010,4.60064,2470.693,2022-11-30T12:06:59Z
2022-11-30T10:08:02Z,42.805,6.029,13.3011,4.60059,2470.646,2022-11-30T12:10:02Z
2022-11-30T10:11:05Z,42.805,6.029,13.3015,4.60060,2470.67,2022-11-30T12:13:05Z
2022-11-30T10:14:09Z,42.805,6.029,13.3014,4.60060,2470.67,2022-11-30T12:16:08Z
2022-11-30T10:17:12Z,42.805,6.029,13.3011,4.60059,2470.67,2022-11-30T12:19:11Z
2022-11-30T10:20:15Z,42.805,6.029,13.3012,4.60059,2470.67,2022-11-30T12:22:14Z
2022-11-30T10:23:18Z,42.805,6.029,13.3014,4.60064,2470.693,2022-11-30T12:25:17Z
2022-11-30T10:26:21Z,42.805,6.029,13.3013,4.60060,2470.717,2022-11-30T12:28:20Z
2022-11-30T10:29:24Z,42.805,6.029,13.3012,4.60059,2470.73,2022-11-30T12:31:23Z
2022-11-30T10:32:27Z,42.805,6.029,13.3012,4.60060,2470.693,2022-11-30T12:34:27Z
2022-11-30T10:35:30Z,42.805,6.029,13.3011,4.60064,2470.693,2022-11-30T12:37:30Z
2022-11-30T10:38:33Z,42.805,6.029,13.3012,4.60061,2470.717,2022-11-30T12:40:33Z
2022-11-30T10:41:36Z,42.805,6.029,13.3010,4.60059,2470.717,2022-11-30T12:43:36Z
2022-11-30T10:44:39Z,42.805,6.029,13.3013,4.60060,2470.707,2022-11-30T12:46:39Z
2022-11-30T10:47:42Z,42.805,6.029,13.3012,4.60064,2470.707,2022-11-30T12:49:42Z
2022-11-30T10:50:46Z,42.805,6.029,13.3013,4.60059,2470.73,2022-11-30T12:52:45Z
2022-11-30T10:53:49Z,42.805,6.029,13.3014,4.60059,2470.693,2022-11-30T12:55:48Z
2022-11-30T10:56:52Z,42.805,6.029,13.3011,4.60062,2470.74,2022-11-30T12:58:51Z
2022-11-30T10:59:55Z,42.805,6.029,13.3009,4.60062,2470.693,2022-11-30T13:01:54Z
2022-11-30T11:02:58Z,42.805,6.029,13.3009,4.60061,2470.717,2022-11-30T13:04:57Z
2022-11-30T11:06:01Z,42.805,6.029,13.3012,4.60059,2470.717,2022-11-30T13:08:00Z
2022-11-30T11:09:04Z,42.805,6.029,13.3010,4.60061,2470.707,2022-11-30T13:11:04Z
2022-11-30T11:12:07Z,42.805,6.029,13.3010,4.60059,2470.717,2022-11-30T13:14:07Z
2022-11-30T11:15:10Z,42.805,6.029,13.3011,4.60061,2470.693,2022-11-30T13:17:10Z
2022-11-30T11:18:13Z,42.805,6.029,13.3014,4.60062,2470.777,2022-11-30T13:20:13Z
2022-11-30T11:21:16Z,42.805,6.029,13.3009,4.60057,2470.717,2022-11-30T13:23:16Z
2022-11-30T11:24:19Z,42.805,6.029,13.3014,4.60061,2470.74,2022-11-30T13:26:19Z
2022-11-30T11:27:23Z,42.805,6.029,13.3009,4.60060,2470.73,2022-11-30T13:29:22Z
2022-11-30T11:30:26Z,42.805,6.029,13.3011,4.60058,2470.74,2022-11-30T13:32:25Z
2022-11-30T11:33:29Z,42.805,6.029,13.3011,4.60062,2470.707,2022-11-30T13:35:28Z
2022-11-30T11:36:32Z,42.805,6.029,13.3013,4.60060,2470.74,2022-11-30T13:38:31Z
2022-11-30T11:39:35Z,42.805,6.029,13.3014,4.60061,2470.754,2022-11-30T13:41:34Z
2022-11-30T11:42:38Z,42.805,6.029,13.3015,4.60058,2470.763,2022-11-30T13:44:37Z
2022-11-30T11:45:41Z,42.805,6.029,13.3009,4.60059,2470.777,2022-11-30T13:47:41Z
2022-11-30T11:48:44Z,42.805,6.029,13.3009,4.60060,2470.763,2022-11-30T13:50:44Z
2022-11-30T11:51:47Z,42.805,6.029,13.3009,4.60059,2470.717,2022-11-30T13:53:47Z
2022-11-30T11:54:50Z,42.805,6.029,13.3009,4.60058,2470.754,2022-11-30T13:56:50Z
2022-11-30T11:57:53Z,42.805,6.029,13.3010,4.60058,2470.717,2022-11-30T13:59:53Z
2022-11-30T12:00:56Z,42.805,6.029,13.3009,4.60062,2470.754,2022-11-30T14:02:56Z
2022-11-30T12:03:59Z,42.805,6.029,13.3013,4.60058,2470.754,2022-11-30T14:05:59Z
2022-11-30T12:07:03Z,42.805,6.029,13.3015,4.60058,2470.777,2022-11-30T14:09:02Z
2022-11-30T12:10:06Z,42.805,6.029,13.3009,4.60059,2470.763,2022-11-30T14:12:05Z
2022-11-30T12:13:09Z,42.805,6.029,13.3012,4.60057,2470.754,2022-11-30T14:15:08Z
2022-11-30T12:16:12Z,42.805,6.029,13.3013,4.60059,2470.763,2022-11-30T14:18:11Z
2022-11-30T12:19:15Z,42.805,6.029,13.3012,4.60061,2470.74,2022-11-30T14:21:14Z
2022-11-30T12:22:18Z,42.805,6.029,13.3011,4.60061,2470.777,2022-11-30T14:24:17Z
2022-11-30T12:25:21Z,42.805,6.029,13.3011,4.60058,2470.754,2022-11-30T14:27:21Z
2022-11-30T12:28:24Z,42.805,6.029,13.3010,4.60057,2470.717,2022-11-30T14:30:24Z
2022-11-30T12:31:27Z,42.805,6.029,13.3013,4.60058,2470.717,2022-11-30T14:33:27Z
2022-11-30T12:34:30Z,42.805,6.029,13.3009,4.60057,2470.74,2022-11-30T14:36:30Z
2022-11-30T12:37:33Z,42.805,6.029,13.3012,4.60057,2470.74,2022-11-30T14:39:33Z
2022-11-30T12:40:36Z,42.805,6.029,13.3011,4.60059,2470.74,2022-11-30T14:42:36Z
2022-11-30T12:43:39Z,42.805,6.029,13.3011,4.60059,2470.74,2022-11-30T14:45:39Z
2022-11-30T12:46:43Z,42.805,6.029,13.3006,4.60059,2470.74,2022-11-30T14:48:42Z
2022-11-30T12:49:46Z,42.805,6.029,13.3006,4.60057,2470.74,2022-11-30T14:51:45Z
2022-11-30T12:52:49Z,42.805,6.029,13.3009,4.60062,2470.74,2022-11-30T14:54:48Z
2022-11-30T12:55:52Z,42.805,6.029,13.3012,4.60058,2470.763,2022-11-30T14:57:51Z
2022-11-30T12:58:55Z,42.805,6.029,13.3008,4.60058,2470.717,2022-11-30T15:00:54Z
2022-11-30T13:01:58Z,42.805,6.029,13.3009,4.60057,2470.74,2022-11-30T15:03:57Z
2022-11-30T13:05:01Z,42.805,6.029,13.3009,4.60057,2470.717,2022-11-30T15:07:01Z
2022-11-30T13:08:04Z,42.805,6.029,13.3014,4.60057,2470.777,2022-11-30T15:10:04Z
2022-11-30T13:11:07Z,42.805,6.029,13.3013,4.60057,2470.74,2022-11-30T15:13:07Z
2022-11-30T13:14:10Z,42.805,6.029,13.3010,4.60057,2470.74,2022-11-30T15:16:10Z
2022-11-30T13:17:13Z,42.805,6.029,13.3008,4.60057,2470.717,2022-11-30T15:19:13Z
2022-11-30T13:20:16Z,42.805,6.029,13.3014,4.60057,2470.763,2022-11-30T15:22:16Z
2022-11-30T13:23:20Z,42.805,6.029,13.3008,4.60059,2470.74,2022-11-30T15:25:19Z
2022-11-30T13:26:23Z,42.805,6.029,13.3013,4.60058,2470.777,2022-11-30T15:28:22Z
2022-11-30T13:29:26Z,42.805,6.029,13.3009,4.60058,2470.754,2022-11-30T15:31:25Z
2022-11-30T13:32:29Z,42.805,6.029,13.3011,4.60057,2470.74,2022-11-30T15:34:28Z
2022-11-30T13:35:32Z,42.805,6.029,13.3011,4.60062,2470.754,2022-11-30T15:37:31Z
2022-11-30T13:38:35Z,42.805,6.029,13.3012,4.60059,2470.74,2022-11-30T15:40:34Z
2022-11-30T13:41:38Z,42.805,6.029,13.3014,4.60057,2470.777,2022-11-30T15:43:38Z
2022-11-30T13:44:41Z,42.805,6.029,13.3014,4.60058,2470.74,2022-11-30T15:46:41Z
2022-11-30T13:47:44Z,42.805,6.029,13.3014,4.60059,2470.74,2022-11-30T15:49:44Z
2022-11-30T13:50:47Z,42.805,6.029,13.3007,4.60057,2470.763,2022-11-30T15:52:47Z
2022-11-30T13:53:50Z,42.805,6.029,13.3013,4.60058,2470.74,2022-11-30T15:55:50Z
2022-11-30T13:56:53Z,42.805,6.029,13.3012,4.60057,2470.73,2022-11-30T15:58:53Z
2022-11-30T13:59:57Z,42.805,6.029,13.3009,4.60061,2470.693,2022-11-30T16:01:56Z
2022-11-30T14:03:00Z,42.805,6.029,13.3009,4.60058,2470.74,2022-11-30T16:04:59Z
2022-11-30T14:06:03Z,42.805,6.029,13.3011,4.60057,2470.754,2022-11-30T16:08:02Z
2022-11-30T14:09:06Z,42.805,6.029,13.3008,4.60057,2470.717,2022-11-30T16:11:05Z
2022-11-30T14:12:09Z,42.805,6.029,13.3009,4.60058,2470.754,2022-11-30T16:14:08Z
2022-11-30T14:15:12Z,42.805,6.029,13.3012,4.60057,2470.74,2022-11-30T16:17:11Z
2022-11-30T14:18:15Z,42.805,6.029,13.3015,4.60061,2470.74,2022-11-30T16:20:14Z
2022-11-30T14:21:18Z,42.805,6.029,13.3012,4.60058,2470.717,2022-11-30T16:23:18Z
2022-11-30T14:24:21Z,42.805,6.029,13.3014,4.60057,2470.754,2022-11-30T16:26:21Z
2022-11-30T14:27:24Z,42.805,6.029,13.3011,4.60059,2470.693,2022-11-30T16:29:24Z
2022-11-30T14:30:27Z,42.805,6.029,13.3011,4.60059,2470.717,2022-11-30T16:32:27Z
2022-11-30T14:33:30Z,42.805,6.029,13.3010,4.60060,2470.717,2022-11-30T16:35:30Z
2022-11-30T14:36:34Z,42.805,6.029,13.3012,4.60059,2470.777,2022-11-30T16:38:33Z
2022-11-30T14:39:37Z,42.805,6.029,13.3014,4.60058,2470.73,2022-11-30T16:41:36Z
2022-11-30T14:42:40Z,42.805,6.029,13.3009,4.60057,2470.693,2022-11-30T16:44:39Z
2022-11-30T14:45:43Z,42.805,6.029,13.3011,4.60057,2470.717,2022-11-30T16:47:42Z
2022-11-30T14:48:46Z,42.805,6.029,13.3007,4.60057,2470.73,2022-11-30T16:50:45Z
2022-11-30T14:51:49Z,42.805,6.029,13.3012,4.60057,2470.717,2022-11-30T16:53:48Z
2022-11-30T14:54:52Z,42.805,6.029,13.3010,4.60058,2470.717,2022-11-30T16:56:52Z
2022-11-30T14:57:55Z,42.805,6.029,13.3007,4.60057,2470.693,2022-11-30T16:59:55Z
2022-11-30T15:00:58Z,42.805,6.029,13.3007,4.60057,2470.74,2022-11-30T17:02:58Z